Dewpoint
13 13 13 12 12 12 11 11 10 11 11 10 10 10 10 9 9 8 7 4 4 2 1 1 1 2 3 -0 0 -2 -3 -5 -7 -6 -6 -6 -7 -9 -9 -14 -15 -17 -18
13 12 12 12 12 11 11 11 10 11 10 10 10 10 9 8 8 7 6 6 4 4 3 2 2 3 3 2 1 0 -1 -4 -0 -2 -2 -4 -8 -4 -9 -13 -16 -16 -18
12 12 12 11 11 11 11 11 11 11 10 10 9 9 8 8 7 6 7 6 5 5 4 3 4 3 2 2 2 -0 -0 0 1 -0 -2 -6 -2 -1 -10 -12 -14 -14 -15
11 11 11 11 11 11 11 10 10 9 10 9 8 7 8 7 7 6 6 6 5 5 5 4 3 2 2 2 2 0 0 0 0 -1 -3 -1 -0 -1 -8 -11 -12 -12 -15
10 10 10 10 10 10 10 10 10 9 9 9 8 7 7 7 6 6 6 5 5 5 4 4 3 3 2 2 1 0 0 0 -1 -1 -1 0 0 -1 -6 -11 -13 -14 -14
8 10 10 9 9 10 10 10 9 9 9 8 7 7 6 6 6 6 5 5 4 4 3 3 3 2 2 2 1 0 0 -0 -1 -1 -1 -0 1 -1 -5 -10 -13 -11 -14
7 7 7 5 6 7 7 7 8 8 7 6 6 6 6 5 5 5 4 4 4 3 3 2 2 1 1 0 -0 -0 -1 -1 -1 -2 -2 1 0 -1 -4 -9 -13 -14 -15
7 7 7 6 6 6 6 5 5 5 5 5 5 5 5 4 4 4 3 3 3 2 2 1 1 1 -0 -1 -1 -1 -2 -1 -0 -0 -1 -0 -1 -1 -4 -8 -12 -13 -14
5 5 4 4 3 4 5 4 5 4 4 5 5 4 4 4 3 3 2 2 1 1 1 0 -1 -1 -1 -1 -1 -1 -1 -1 -0 -1 -2 -2 -4 -5 -6 -9 -12 -13 -14
4 3 3 3 4 4 4 4 4 4 4 3 3 3 3 3 2 2 2 1 1 0 -0 -1 -1 -1 -1 -2 -2 -2 -2 -1 -1 -2 -3 -5 -6 -6 -7 -10 -12 -14 -15
4 4 4 4 4 4 4 4 3 3 3 3 3 2 2 2 1 1 0 0 -0 -0 -1 -1 -1 -2 -2 -2 -2 -2 -3 -1 -1 -3 -6 -5 -8 -6 -10 -12 -13 -14 -15
4 3 2 2 1 2 3 3 3 3 2 2 2 2 1 0 0 0 -0 -0 -1 -1 -1 -1 -1 -3 -2 -2 -2 -3 -3 -2 -3 -4 -5 -3 -8 -4 -10 -12 -13 -13 -13
3 3 3 2 1 1 1 1 0 1 1 1 1 1 1 0 -0 -1 -1 -1 -2 -2 -2 -2 -2 -2 -2 -3 -3 -3 -3 -3 -4 -4 -5 -4 -5 -7 -5 -8 -12 -12 -11
3 3 3 2 1 1 1 -0 -0 -0 -0 -0 0 -0 -0 -0 -0 -1 -1 -2 -3 -3 -3 -3 -3 -3 -3 -3 -4 -4 -4 -4 -4 -5 -6 -5 -4 -6 -5 -7 -9 -10 -15
4 4 3 2 1 1 -0 -1 -1 -1 -1 -1 -1 -1 -1 -1 -1 -1 -2 -2 -2 -3 -4 -4 -4 -5 -5 -5 -5 -5 -5 -5 -5 -6 -6 -5 -5 -5 -5 -5 -8 -9 -23
3 3 2 1 0 -0 -1 -2 -2 -2 -2 -2 -2 -2 -2 -2 -3 -2 -2 -3 -3 -4 -5 -5 -5 -5 -6 -6 -5 -5 -6 -6 -6 -6 -6 -6 -5 -6 -6 -8 -9 -10 -24
2 1 -0 -1 -1 -2 -3 -4 -5 -5 -6 -6 -5 -5 -5 -6 -6 -6 -5 -6 -6 -6 -6 -6 -6 -6 -6 -6 -6 -6 -6 -6 -6 -7 -7 -6 -6 -6 -6 -18 -7 -16 -24
-4 -5 -5 -5 -5 -6 -7 -7 -7 -7 -7 -7 -6 -6 -6 -7 -7 -7 -7 -7 -7 -7 -7 -7 -7 -7 -7 -7 -7 -7 -7 -7 -7 -8 -8 -7 -6 -7 -9 -12 -8 -15 -25
-6 -5 -5 -6 -6 -6 -6 -7 -7 -7 -6 -6 -6 -7 -8 -8 -8 -8 -8 -7 -7 -7 -8 -8 -8 -7 -7 -7 -8 -8 -8 -8 -8 -8 -8 -7 -7 -8 -9 -8 -8 -16 -20
-4 -4 -5 -5 -5 -5 -5 -5 -5 -6 -6 -6 -6 -7 -7 -7 -8 -8 -8 -8 -8 -9 -9 -9 -8 -8 -8 -8 -8 -8 -8 -9 -8 -8 -8 -8 -8 -8 -8 -9 -8 -15 -16
-4 -5 -5 -5 -4 -4 -5 -5 -5 -5 -5 -6 -6 -7 -7 -7 -7 -8 -8 -9 -9 -9 -9 -9 -9 -8 -8 -8 -8 -8 -9 -9 -9 -9 -9 -9 -8 -9 -9 -9 -9 -13 -12
-4 -4 -4 -4 -4 -4 -5 -5 -4 -4 -5 -5 -5 -6 -6 -6 -7 -7 -7 -7 -8 -8 -8 -8 -8 -9 -9 -9 -8 -9 -9 -9 -9 -9 -9 -9 -9 -9 -9 -9 -11 -11 -12
-4 -4 -4 -4 -4 -5 -5 -5 -5 -5 -5 -5 -5 -5 -6 -6 -6 -6 -7 -7 -7 -8 -8 -8 -8 -8 -9 -9 -9 -9 -9 -9 -10 -9 -10 -9 -9 -9 -9 -9 -12 -11 -12
-4 -4 -4 -4 -4 -5 -5 -5 -5 -5 -5 -5 -5 -6 -5 -6 -6 -6 -6 -6 -7 -8 -8 -8 -8 -8 -9 -9 -9 -9 -9 -9 -10 -10 -10 -10 -9 -9 -9 -10 -13 -13 -12
-4 -5 -4 -5 -5 -5 -5 -5 -5 -5 -5 -5 -6 -6 -5 -5 -5 -5 -5 -6 -6 -7 -7 -8 -8 -8 -9 -9 -9 -9 -10 -10 -10 -10 -10 -10 -10 -9 -9 -14 -16 -12 -11
-5 -5 -5 -6 -5 -5 -5 -5 -5 -5 -5 -5 -6 -5 -6 -5 -5 -5 -5 -5 -6 -6 -7 -8 -8 -8 -9 -9 -9 -9 -10 -9 -10 -10 -10 -10 -10 -11 -12 -13 -13 -12 -12
Wind_Speed
45 49 50 49 49 52 52 53 58 51 51 50 48 49 55 61 61 59 57 59 57 56 57 54 52 43 42 41 32 27 26 29 22 24 28 32 28 29 23 23 19 17 15
40 43 46 50 52 51 52 55 50 49 47 39 42 47 52 54 56 56 57 56 54 53 50 47 47 42 49 43 45 36 36 35 24 20 24 32 33 30 24 24 21 20 17
29 35 41 48 52 53 53 52 50 50 41 39 43 47 45 45 48 52 52 51 50 49 49 47 46 45 47 46 43 39 37 34 29 30 31 39 34 25 29 26 23 21 18
26 30 36 41 46 50 49 48 43 40 39 38 33 36 38 39 40 43 42 43 43 42 42 44 43 45 45 48 47 48 41 35 32 31 32 32 27 29 32 31 29 26 22
25 31 33 38 43 43 43 41 35 38 38 33 35 34 36 34 33 34 34 36 37 36 38 40 42 42 44 46 50 47 42 37 37 36 38 32 28 34 40 37 33 28 26
16 28 30 28 41 41 39 38 36 37 32 31 33 31 30 29 27 26 28 31 31 31 34 36 37 40 40 42 47 44 49 42 40 44 42 37 31 37 39 40 37 33 29
13 12 13 10 16 20 26 35 37 35 33 32 30 27 28 25 23 24 24 25 26 25 26 29 34 36 37 38 36 34 31 37 41 44 41 36 33 34 38 41 39 36 33
12 12 13 18 20 18 17 15 18 24 27 29 28 26 24 23 20 21 21 21 22 23 24 24 30 31 32 31 37 36 38 34 34 36 41 30 27 33 39 41 38 36 29
16 16 13 14 17 19 17 18 16 19 24 23 22 19 21 21 21 19 19 21 21 20 22 26 27 29 31 34 35 38 35 36 37 31 25 24 22 35 34 40 36 33 31
16 16 16 15 18 23 23 21 18 15 14 15 15 16 15 16 16 17 18 19 19 21 21 21 21 20 24 31 36 36 39 39 34 32 28 24 28 27 25 27 30 33 34
15 14 13 10 9 12 15 16 14 14 17 19 17 15 15 16 17 17 17 19 19 20 20 21 23 22 24 29 34 36 41 33 34 30 29 30 30 28 27 29 28 29 31
15 16 15 12 9 10 12 13 14 13 11 12 16 18 16 17 16 16 16 17 19 20 19 22 24 24 30 37 38 38 40 36 35 33 34 35 34 33 32 29 30 31 27
20 18 17 15 10 9 8 9 13 13 13 14 13 15 16 15 15 15 15 17 19 21 22 22 23 26 29 32 33 34 33 33 35 35 38 36 36 36 33 31 33 31 29
20 19 18 18 15 13 12 10 10 12 13 13 13 13 12 13 14 14 15 16 16 19 20 20 19 21 24 28 31 32 32 34 36 36 38 38 34 35 33 32 32 31 29
22 23 20 16 15 15 14 13 12 12 11 11 11 12 14 15 14 15 15 18 18 21 21 21 21 22 26 28 35 34 35 34 34 35 36 36 33 36 33 31 29 27 29
23 23 20 19 19 18 17 17 16 15 15 15 16 17 19 20 21 20 21 19 18 19 21 24 25 26 29 30 35 37 36 35 34 35 36 37 36 36 33 31 31 29 30
24 24 23 24 23 22 19 16 15 14 14 13 13 14 16 15 14 14 16 16 16 16 20 23 25 27 29 30 33 36 38 37 35 35 37 37 35 34 33 35 31 30 31
21 21 21 19 18 16 14 13 12 13 15 14 15 14 14 11 11 10 11 13 16 16 17 19 21 24 27 30 32 36 36 37 35 36 37 38 38 37 35 37 33 32 31
21 20 20 20 18 16 14 13 12 10 10 10 12 12 11 11 11 11 12 13 15 16 16 17 20 23 25 27 30 32 34 35 35 37 38 39 38 38 38 35 32 32 31
17 17 17 16 16 15 12 10 8 6 6 6 5 4 10 10 9 8 9 9 9 10 12 18 21 23 22 23 27 30 31 31 31 36 37 38 38 40 37 36 34 33 30
13 12 11 11 10 9 8 6 5 5 4 4 5 4 3 3 6 6 8 11 9 11 14 16 17 20 21 24 25 27 30 29 31 34 35 36 36 39 37 35 32 29 25
9 9 8 7 6 4 4 4 3 1 2 3 5 6 6 4 5 5 9 11 11 10 14 17 17 17 19 20 23 25 27 29 31 32 33 35 35 35 36 33 28 26 25
10 8 6 5 6 7 8 6 6 7 7 8 8 8 7 6 6 7 10 11 12 11 12 15 17 17 17 18 19 23 24 27 29 30 32 34 35 32 32 30 28 28 27
10 10 9 9 10 10 10 10 10 10 10 12 12 12 11 10 12 11 11 11 11 11 13 14 16 16 16 16 17 19 20 21 24 27 29 32 34 32 31 28 29 29 29
9 8 8 9 10 11 11 11 12 13 13 14 14 14 13 14 14 15 14 12 12 12 13 15 15 16 15 15 16 16 17 18 20 21 25 29 30 31 29 29 29 29 29
9 10 9 9 10 10 10 12 13 14 15 16 15 16 16 16 16 16 16 15 14 13 12 14 15 15 15 15 15 14 14 15 17 18 20 23 24 24 24 24 24 26 27
Wind_Direction
221 218 219 216 215 211 212 214 219 220 222 222 225 226 225 223 222 223 224 225 226 226 228 230 232 231 234 228 240 233 236 231 224 216 229 223 219 223 220 219 219 224 229
224 222 218 216 218 214 212 221 218 232 221 224 226 227 227 225 225 225 224 227 227 227 229 229 232 236 232 238 231 233 224 215 227 217 241 223 217 223 224 223 222 218 221
229 220 223 223 221 219 215 217 225 235 220 218 223 225 226 228 226 225 228 230 229 233 232 232 240 231 229 225 228 214 215 222 228 220 229 213 216 223 218 215 221 216 216
227 227 225 222 218 219 218 215 212 211 217 216 224 225 227 227 226 227 228 231 232 234 236 238 234 230 231 228 226 220 224 217 220 216 221 215 220 227 219 215 210 209 212
220 221 217 223 224 220 220 219 216 219 217 220 220 220 222 223 224 224 227 230 232 233 233 234 237 239 229 229 233 229 226 224 207 209 214 223 227 216 217 212 215 212 209
204 222 222 217 211 213 215 208 211 215 222 218 215 215 213 215 216 222 226 228 228 230 232 235 236 239 241 238 234 239 237 212 212 216 219 232 250 222 220 218 213 207 204
218 187 178 191 235 200 210 196 205 208 206 204 203 202 206 212 213 218 219 222 230 232 233 236 237 231 232 227 233 223 210 217 225 220 228 249 252 223 226 222 220 218 218
167 150 161 162 152 159 161 169 187 189 188 191 192 195 203 207 212 214 217 222 229 233 237 237 234 241 234 218 217 211 207 217 223 233 239 241 245 242 233 231 225 217 218
155 155 162 162 160 150 152 150 173 186 185 184 192 196 205 207 209 211 215 220 225 232 236 233 238 234 234 223 216 211 216 223 232 234 232 221 228 243 237 226 222 217 215
155 152 145 154 158 149 149 156 162 177 170 170 173 190 200 208 217 219 220 225 224 224 227 233 232 232 225 215 211 216 224 226 240 237 218 216 226 230 234 233 233 221 216
178 178 181 183 183 170 167 158 166 177 176 170 175 188 201 207 217 221 224 226 228 222 223 229 228 226 220 219 222 230 225 240 246 216 211 219 221 208 220 218 220 229 226
164 162 159 152 157 179 186 173 167 190 195 198 188 185 203 216 217 221 225 234 237 234 235 239 240 235 228 228 232 232 237 243 224 213 211 215 213 210 214 211 217 222 221
170 169 163 157 160 165 163 167 170 179 195 207 213 200 191 211 218 221 219 225 232 238 242 245 245 242 238 237 236 234 228 225 218 213 215 213 210 207 208 214 216 219 220
181 177 177 178 181 183 164 166 175 173 175 183 195 202 203 199 219 221 224 224 223 234 236 238 241 243 242 237 230 227 226 225 221 216 213 215 217 204 210 211 217 219 220
186 184 179 177 190 193 181 179 173 178 193 199 199 208 216 215 216 225 229 227 229 233 236 238 239 236 232 229 225 225 223 221 218 215 214 211 211 210 211 214 214 220 222
178 180 185 195 196 192 185 172 176 183 191 196 204 205 210 207 211 216 220 219 218 225 230 232 234 232 231 228 228 223 222 222 221 219 217 215 216 210 209 210 214 219 224
182 176 180 182 180 180 176 170 172 175 179 186 196 202 198 192 187 191 195 199 202 203 221 229 231 233 232 233 234 230 226 222 219 218 212 213 212 214 210 209 218 218 222
167 167 166 163 161 156 153 151 158 175 183 184 188 195 191 177 173 175 182 186 202 208 223 230 234 237 235 237 239 235 230 226 220 216 215 216 219 217 206 212 215 221 220
150 149 149 149 148 148 149 151 151 163 173 186 195 185 174 178 171 174 188 203 214 219 223 232 239 243 241 242 242 241 238 231 225 221 217 220 224 218 212 217 216 222 221
142 145 146 148 150 150 152 150 149 165 176 173 199 196 192 182 190 201 215 221 229 236 234 238 243 245 247 247 244 242 241 235 229 225 225 227 224 221 217 217 218 221 220
145 144 146 146 149 149 156 161 168 192 173 188 219 226 242 230 223 233 251 250 249 248 240 239 243 246 249 250 247 245 240 240 233 229 230 229 226 221 218 219 221 221 224
150 148 139 133 133 160 176 190 189 126 194 230 235 243 256 275 296 296 278 266 263 261 249 246 250 252 254 253 251 247 244 240 237 233 232 229 226 223 219 218 217 221 224
171 170 168 187 205 221 228 235 241 251 259 257 266 277 286 300 310 307 289 272 264 254 247 244 247 248 250 252 254 252 247 243 241 238 234 230 226 224 222 219 221 222 223
189 203 206 217 231 242 248 251 254 257 264 269 269 273 278 281 289 293 289 282 274 262 250 249 250 251 248 246 248 250 248 243 240 238 236 233 227 225 224 220 226 225 225
183 202 210 218 229 240 252 261 266 263 263 264 267 271 276 282 279 279 280 278 279 268 255 248 248 247 246 243 240 240 243 238 233 232 230 230 230 226 227 229 225 222 224
193 198 217 232 241 250 259 265 269 274 279 281 279 279 274 273 272 269 270 271 271 272 263 250 244 244 242 237 232 226 230 230 225 219 216 215 216 217 218 219 222 223 222
Height
1318 1323 1328 1332 1337 1341 1343 1346 1353 1362 1370 1377 1385 1391 1398 1405 1411 1419 1425 1430 1438 1444 1450 1460 1465 1472 1478 1486 1492 1497 1498 1504 1506 1513 1516 1523 1526 1529 1528 1532 1533 1539 1542
1312 1317 1320 1323 1327 1332 1336 1342 1349 1358 1363 1372 1379 1385 1391 1397 1405 1411 1415 1422 1430 1436 1444 1452 1457 1464 1471 1477 1484 1486 1490 1496 1500 1506 1515 1519 1520 1525 1526 1529 1530 1534 1538
1310 1312 1315 1318 1320 1325 1328 1336 1344 1348 1358 1363 1371 1376 1383 1391 1397 1404 1410 1417 1423 1430 1437 1444 1448 1455 1461 1465 1469 1476 1481 1486 1494 1500 1508 1509 1513 1515 1521 1523 1529 1531 1535
1308 1312 1313 1315 1316 1318 1324 1329 1331 1327 1351 1357 1362 1370 1378 1385 1390 1398 1404 1413 1419 1425 1430 1435 1440 1446 1450 1458 1461 1466 1473 1478 1486 1494 1501 1505 1507 1511 1517 1519 1522 1525 1529
1304 1306 1310 1313 1314 1315 1319 1323 1329 1339 1347 1348 1356 1365 1374 1381 1387 1393 1399 1407 1413 1418 1424 1428 1433 1439 1443 1449 1454 1460 1467 1472 1477 1488 1495 1498 1499 1504 1508 1511 1516 1520 1524
1303 1304 1306 1310 1307 1310 1313 1315 1326 1336 1341 1344 1352 1361 1370 1377 1382 1391 1397 1403 1409 1413 1418 1422 1427 1433 1438 1442 1447 1452 1459 1464 1471 1478 1486 1490 1493 1498 1505 1507 1511 1517 1519
1306 1307 1308 1307 1305 1305 1309 1311 1324 1328 1335 1342 1350 1358 1367 1375 1380 1388 1394 1400 1406 1409 1413 1416 1421 1424 1430 1436 1441 1446 1453 1461 1468 1474 1480 1483 1486 1492 1498 1501 1506 1511 1512
1308 1305 1310 1312 1309 1317 1316 1319 1326 1329 1334 1340 1350 1356 1364 1372 1378 1386 1393 1397 1402 1405 1409 1411 1416 1421 1423 1428 1436 1441 1448 1455 1463 1467 1472 1477 1482 1488 1495 1498 1501 1507 1513
1306 1310 1314 1315 1313 1312 1320 1319 1328 1334 1337 1341 1350 1354 1363 1370 1378 1382 1386 1392 1397 1401 1405 1408 1412 1416 1420 1424 1426 1437 1444 1449 1458 1462 1466 1468 1475 1484 1488 1492 1498 1503 1508
1307 1311 1313 1319 1322 1316 1318 1324 1331 1338 1337 1342 1345 1355 1362 1367 1375 1380 1383 1388 1390 1396 1400 1404 1405 1410 1416 1420 1427 1432 1436 1443 1449 1454 1459 1463 1469 1477 1483 1489 1493 1496 1499
1309 1313 1318 1321 1324 1325 1328 1323 1331 1341 1343 1338 1344 1353 1360 1364 1374 1377 1378 1383 1388 1391 1394 1399 1402 1406 1413 1418 1426 1428 1432 1438 1443 1448 1454 1459 1464 1470 1477 1481 1486 1491 1494
1307 1314 1317 1320 1324 1329 1331 1329 1325 1339 1344 1348 1346 1345 1357 1367 1368 1371 1372 1380 1384 1388 1390 1397 1401 1404 1409 1414 1419 1421 1426 1430 1434 1441 1447 1452 1459 1462 1469 1475 1481 1485 1489
1306 1312 1315 1318 1326 1332 1332 1333 1329 1333 1340 1349 1354 1351 1349 1361 1365 1369 1371 1376 1380 1386 1387 1392 1395 1401 1405 1407 1411 1416 1418 1424 1428 1432 1438 1446 1452 1458 1462 1470 1476 1479 1483
1308 1310 1316 1319 1324 1333 1327 1332 1335 1336 1342 1346 1352 1355 1355 1351 1361 1364 1367 1372 1375 1383 1385 1386 1389 1395 1398 1400 1403 1406 1411 1417 1423 1428 1433 1440 1446 1453 1455 1461 1468 1476 1478
1309 1315 1316 1314 1324 1330 1329 1329 1330 1338 1346 1347 1349 1352 1354 1353 1357 1362 1365 1367 1369 1375 1379 1382 1385 1388 1390 1395 1396 1402 1406 1411 1416 1421 1429 1435 1441 1447 1450 1455 1462 1468 1472
1309 1311 1313 1319 1326 1330 1329 1328 1334 1339 1343 1347 1350 1350 1353 1353 1354 1358 1360 1363 1366 1370 1372 1375 1380 1382 1385 1389 1391 1396 1400 1405 1410 1417 1423 1430 1434 1439 1445 1450 1455 1459 1466
1310 1313 1320 1327 1330 1331 1332 1332 1336 1338 1341 1344 1349 1352 1352 1353 1351 1353 1356 1359 1362 1366 1367 1371 1374 1379 1380 1384 1389 1393 1396 1398 1402 1410 1417 1424 1428 1433 1438 1444 1448 1454 1459
1313 1318 1322 1325 1328 1329 1331 1333 1335 1340 1345 1346 1349 1352 1353 1349 1347 1349 1352 1357 1362 1362 1364 1366 1368 1375 1376 1381 1384 1390 1391 1395 1398 1405 1411 1418 1422 1427 1432 1438 1442 1449 1453
1316 1320 1322 1325 1328 1331 1333 1334 1336 1341 1344 1348 1351 1351 1348 1349 1346 1347 1351 1354 1357 1359 1358 1360 1365 1371 1376 1376 1380 1384 1386 1390 1394 1399 1404 1411 1416 1421 1426 1432 1437 1443 1447
1320 1323 1325 1326 1328 1330 1335 1337 1340 1345 1347 1348 1350 1348 1348 1346 1345 1347 1350 1351 1351 1353 1354 1359 1364 1368 1370 1373 1376 1378 1381 1384 1389 1394 1399 1405 1411 1415 1420 1426 1431 1436 1441
1322 1324 1326 1328 1331 1333 1337 1340 1343 1345 1345 1347 1349 1349 1348 1347 1345 1344 1346 1348 1347 1352 1354 1357 1360 1363 1366 1369 1372 1374 1376 1379 1384 1389 1394 1400 1405 1410 1415 1420 1426 1432 1437
1325 1328 1329 1331 1333 1338 1341 1342 1343 1343 1346 1347 1349 1348 1347 1345 1342 1341 1343 1345 1346 1348 1351 1353 1356 1358 1362 1364 1367 1369 1372 1375 1380 1384 1389 1394 1399 1404 1410 1415 1421 1427 1432
1325 1326 1328 1332 1336 1339 1341 1340 1341 1342 1344 1345 1345 1344 1341 1339 1338 1340 1342 1343 1344 1345 1347 1349 1352 1354 1357 1359 1362 1365 1368 1370 1374 1379 1384 1389 1394 1399 1405 1410 1415 1421 1425
1322 1326 1328 1330 1334 1336 1337 1338 1338 1339 1339 1339 1339 1338 1337 1336 1337 1337 1339 1340 1341 1341 1343 1345 1348 1350 1352 1354 1357 1360 1363 1367 1370 1374 1379 1383 1389 1394 1400 1405 1410 1415 1419
1320 1324 1326 1328 1331 1333 1334 1334 1334 1334 1334 1334 1334 1333 1332 1333 1334 1334 1336 1337 1337 1338 1339 1341 1342 1345 1347 1350 1352 1355 1358 1361 1365 1369 1373 1378 1383 1389 1394 1398 1403 1408 1413
1320 1322 1325 1327 1329 1329 1329 1329 1330 1330 1330 1331 1329 1328 1328 1329 1330 1331 1331 1332 1333 1334 1334 1336 1338 1340 1343 1345 1348 1350 1354 1358 1361 1365 1369 1374 1379 1383 1388 1392 1398 1402 1407